Location: Clermont
(50.2608°N, 4.3172°E)
Time: 02:24:44
(UTC+00:00)

Meteor 1-27 Rocket - Pass Details

Date: 13 August 2020
Orbit: 830 x 909 km, 81.3° (Epoch: 25 September)

Event Time Altitude Azimuth Distance (km) Brightness Sun altitude
Rises 19:50:51 0° 346° (NNW) 3,537 7.7 -7.3°
Reaches altitude 10° 19:53:19 10° 346° (NNW) 2,598 7.0 -7.6°
Maximum altitude 19:59:15 78° 261° (W) 934 4.1 -8.4°
Drops below altitude 10° 20:05:10 10° 176° (S) 2,587 5.9 -9.2°
Sets 20:07:37 0° 175° (S) 3,521 6.5 -9.5°
